Winnipeg, Manitoba

2:52 AM CDT on June 24, 2017 (GMT -0500)
Winnipeg International Airport

Weather History for CYWG - July, 2013

Change the Weather History Date:

Monday, July 8, 2013

  Actual Average Record
Temperature  
Mean Temperature 68 °F -  
Max Temperature 84 °F 78 °F 86 °F (2001)
Min Temperature 53 °F 55 °F 44 °F (2003)
Cooling Degree Days 4    
Growing Degree Days 18 (Base 50)    
Moisture  
Dew Point 60 °F    
Average Humidity 72    
Maximum Humidity 100    
Minimum Humidity 43    
Precipitation  
Precipitation 0.00 in 0.10 in - ()
Sea Level Pressure  
Sea Level Pressure 29.93 in    
Wind  
Wind Speed 5 mph ()    
Max Wind Speed 15 mph    
Max Gust Speed 22 mph    
Visibility 14.1 miles    
Events Fog    
Averages and records for this station are not official NWS values.
T = Trace of Precipitation, MM = Missing Value Source: Averaged Metar Reports

Daily Weather History Graph

Daily Weather History Graph

Search for Another Location

Airport or City:

Trip Planner

Search our weather history database for the weather conditions in past years. The results will help you decide how hot, cold, wet, or windy it might be!

Date:

Astronomy

Jul. 08, 2013 Rise Set
Actual Time 5:30 AM CDT 9:37 PM CDT
Civil Twilight 4:47 AM CDT 10:20 PM CDT
Nautical Twilight 3:45 AM CDT 11:21 PM CDT
Astronomical Twilight 2:06 AM CDT 1:01 AM CDT
Moon 6:10 AM CDT (7/8) 9:27 PM CDT (7/8)
Length of Visible Light 17h 33m
Length of Day
16h 07m
New Moon, 0% of the Moon is Illuminated
Jul 8
New Moon
Jul 15
First Quarter
Jul 22
Full
Jul 29
Last Quarter
Aug 6
New

Hourly Weather History & Observations

Time (CDT) Temp. Heat Index Dew Point Humidity Pressure Visibility Wind Dir Wind Speed Gust Speed Precip Events Conditions
12:00 AM 60.8 °F - 57.2 °F 88% 29.94 in 15.0 mi West 5.8 mph - N/A   Clear
1:00 AM 58 °F - 58 °F 100% 29.94 in 9 mi Calm Calm - -  
1:00 AM 57.2 °F - 55.4 °F 94% 29.95 in 15.0 mi WSW 2.3 mph - N/A   Clear
2:00 AM 55.4 °F - 55.4 °F 100% 29.95 in 15.0 mi NW 2.3 mph - N/A   Clear
3:00 AM 55.4 °F - 53.6 °F 94% 29.96 in 15.0 mi Calm Calm - N/A Fog Shallow Fog
4:00 AM 53.6 °F - 51.8 °F 94% 29.96 in 15.0 mi SW 2.3 mph - N/A   Clear
5:00 AM 59.0 °F - 57.2 °F 94% 29.97 in 15.0 mi SW 3.5 mph - N/A Fog Shallow Fog
6:00 AM 57.2 °F - 55.4 °F 94% 29.97 in 15.0 mi SSE 3.5 mph - N/A   Partly Cloudy
7:00 AM 65 °F - 61 °F 83% 29.94 in 9 mi Calm Calm - -  
7:00 AM 64.4 °F - 60.8 °F 88% 29.95 in 15.0 mi SE 3.5 mph - N/A   Mostly Cloudy
8:00 AM 68.0 °F - 60.8 °F 78% 29.95 in 15.0 mi South 4.6 mph - N/A   Mostly Cloudy
9:00 AM 71.6 °F - 60.8 °F 69% 29.97 in 15.0 mi South 9.2 mph - N/A   Mostly Cloudy
10:00 AM 71.6 °F - 60.8 °F 69% 29.97 in 15.0 mi SSW 10.4 mph - N/A   Mostly Cloudy
11:00 AM 75.2 °F - 60.8 °F 61% 29.96 in 15.0 mi South 9.2 mph - N/A   Mostly Cloudy
12:00 PM 78.8 °F - 62.6 °F 57% 29.95 in 15.0 mi South 9.2 mph - N/A   Mostly Cloudy
1:00 PM 82 °F - 65 °F 46% 29.94 in 9 mi Calm Calm - -  
1:00 PM 80.6 °F 81.8 °F 62.6 °F 54% 29.94 in 15.0 mi SSW 9.2 mph - N/A   Mostly Cloudy
2:00 PM 80.6 °F 81.8 °F 62.6 °F 54% 29.93 in 15.0 mi SSW 8.1 mph - N/A   Mostly Cloudy
3:00 PM 82.4 °F 82.9 °F 60.8 °F 48% 29.92 in 15.0 mi South 15.0 mph 21.9 mph N/A   Mostly Cloudy
4:00 PM 82.4 °F 82.9 °F 60.8 °F 48% 29.91 in 15.0 mi SSW 9.2 mph 19.6 mph N/A   Mostly Cloudy
5:00 PM 82.4 °F 82.9 °F 60.8 °F 48% 29.90 in 15.0 mi SSW 13.8 mph - N/A   Mostly Cloudy
6:00 PM 84.2 °F 85.0 °F 62.6 °F 48% 29.87 in 15.0 mi SSW 12.7 mph - N/A   Mostly Cloudy
7:00 PM 82 °F - 63 °F 43% 29.86 in 9 mi Calm Calm - -  
7:00 PM 80.6 °F 81.8 °F 62.6 °F 54% 29.86 in 15.0 mi SW 10.4 mph - N/A   Mostly Cloudy
8:00 PM 75.2 °F - 68.0 °F 78% 29.88 in 15.0 mi NNW 3.5 mph - N/A   Mostly Cloudy
9:00 PM 73.4 °F - 66.2 °F 78% 29.86 in 15.0 mi North 2.3 mph - N/A   Scattered Clouds
10:00 PM 68.0 °F - 66.2 °F 94% 29.88 in 15.0 mi NNW 4.6 mph - N/A   Mostly Cloudy
11:00 PM 69.8 °F - 60.8 °F 73% 29.90 in 15.0 mi North 10.4 mph - N/A   Mostly Cloudy